Weather History for Liberia, Costa Rica

Change the Weather History Date:

Monday, May 13, 2013

  Actual Average Record
Temperature  
Mean Temperature 82 °F -  
Max Temperature 92 °F 88 °F 104 °F (1998)
Min Temperature 73 °F 76 °F 72 °F (2014)
Cooling Degree Days 18    
Growing Degree Days 32 (Base 50)    
Moisture  
Dew Point 62 °F    
Average Humidity 41    
Maximum Humidity 58    
Minimum Humidity 27    
Precipitation  
Precipitation 0.00 in - - ()
Sea Level Pressure  
Sea Level Pressure 29.82 in    
Wind  
Wind Speed 16 mph ()    
Max Wind Speed 26 mph    
Max Gust Speed 38 mph    
Visibility 12.0 miles    
Events      
Averages and records for this station are not official NWS values.
T = Trace of Precipitation, MM = Missing Value Source: Averaged Metar Reports

Daily Weather History Graph

Daily Weather History Graph

Search for Another Location

Airport:

Trip Planner

Search our weather history database for the weather conditions in past years. The results will help you decide how hot, cold, wet, or windy it might be!

Date:

Astronomy

May. 13, 2013 Rise Set
Actual Time 5:20 AM CST 5:56 PM CST
Civil Twilight 4:58 AM CST 6:18 PM CST
Nautical Twilight 4:32 AM CST 6:45 PM CST
Astronomical Twilight 4:05 AM CST 7:11 PM CST
Moon 8:10 AM CST (5/13) 9:04 PM CST (5/13)
Length of Visible Light 13h 20m
Length of Day
12h 35m
Waxing Crescent, 12% of the Moon is Illuminated
May 13
Waxing Crescent
May 17
First Quarter
May 24
Full
May 31
Last Quarter
Jun 8
New

Hourly Weather History & Observations

Time (CST) Temp. Heat Index Dew Point Humidity Pressure Visibility Wind Dir Wind Speed Gust Speed Precip Events Conditions
6:00 AM 80 °F - 64 °F 48% 29.83 in 12 mi East 5.8 mph - -   Clear
6:00 AM 80.6 °F 82.3 °F 64.4 °F 58% 29.82 in - East 5.8 mph - N/A   Clear
7:00 AM 82.4 °F 83.9 °F 64.4 °F 54% 29.85 in - NE 16.1 mph - N/A   Clear
8:00 AM 84.2 °F 85.6 °F 64.4 °F 51% 29.85 in - ENE 20.7 mph 32.2 mph N/A   Clear
9:00 AM 85 °F - 61 °F 34% 29.87 in 12 mi ENE 20.7 mph - -   Overcast
9:00 AM 84.2 °F 84.4 °F 60.8 °F 45% 29.86 in - ENE 20.7 mph 32.2 mph N/A   Clear
10:00 AM 86.0 °F 86.6 °F 62.6 °F 45% 29.85 in - East 25.3 mph - N/A   Clear
11:00 AM 89.6 °F 90.1 °F 62.6 °F 40% 29.85 in - ENE 25.3 mph - N/A   Clear
12:00 PM 90 °F - 63 °F 30% 29.84 in 12 mi ENE 20.7 mph - -   Clear
12:00 PM 89.6 °F 90.1 °F 62.6 °F 40% 29.82 in - ENE 20.7 mph 32.2 mph N/A   Clear
1:00 PM 89.6 °F 89.5 °F 60.8 °F 38% 29.79 in - NE 23.0 mph - N/A   Clear
2:00 PM 91.4 °F 90.7 °F 59.0 °F 34% 29.77 in - ENE 24.2 mph 35.7 mph N/A   Clear
3:00 PM 90 °F - 60 °F 27% 29.78 in 12 mi ENE 26.5 mph - -   Clear
3:00 PM 89.6 °F 89.5 °F 60.8 °F 38% 29.76 in - ENE 26.5 mph - N/A   Clear
4:00 PM 91.4 °F 90.7 °F 59.0 °F 34% 29.77 in - NE 25.3 mph 38.0 mph N/A   Clear
5:00 PM 89.6 °F 88.9 °F 59.0 °F 36% 29.79 in - ENE 26.5 mph 38.0 mph N/A   Clear
6:00 PM 85 °F - 61 °F 34% 29.83 in 12 mi ENE 20.7 mph - -   Clear
6:00 PM 86.0 °F 86.1 °F 60.8 °F 43% 29.82 in - ENE 20.7 mph - N/A   Clear
7:00 PM 84.2 °F 84.4 °F 60.8 °F 45% 29.84 in - ENE 23.0 mph 35.7 mph N/A   Clear
8:00 PM 82.4 °F 82.9 °F 60.8 °F 48% 29.85 in - East 20.7 mph 32.2 mph N/A   Clear